TimeMDT,TemperatureF,Dew PointF,Humidity,Sea Level PressureIn,VisibilityMPH,Wind Direction,Wind SpeedMPH,Gust SpeedMPH,PrecipitationIn,Events,Conditions,WindDirDegrees,DateUTC
12:53 AM,57.9,44.1,60,29.82,10.0,WSW,4.6,-,N/A,,Clear,240,2013-06-19 06:53:00
1:53 AM,53.1,44.1,71,29.83,10.0,South,3.5,-,N/A,,Clear,180,2013-06-19 07:53:00
2:53 AM,51.1,44.1,77,29.83,10.0,Calm,Calm,-,N/A,,Clear,0,2013-06-19 08:53:00
3:53 AM,54.0,43.0,66,29.82,10.0,SSE,3.5,-,N/A,,Clear,150,2013-06-19 09:53:00
4:53 AM,54.0,45.0,72,29.81,10.0,SSW,5.8,-,N/A,,Clear,200,2013-06-19 10:53:00
5:53 AM,53.1,46.0,77,29.82,10.0,Calm,Calm,-,N/A,,Clear,0,2013-06-19 11:53:00
6:53 AM,57.9,48.0,70,29.79,10.0,South,4.6,-,N/A,,Clear,190,2013-06-19 12:53:00
7:53 AM,62.1,48.9,62,29.78,10.0,SSE,4.6,-,N/A,,Clear,160,2013-06-19 13:53:00
8:53 AM,64.9,48.0,54,29.75,10.0,SSE,6.9,-,N/A,,Clear,150,2013-06-19 14:53:00
9:53 AM,69.1,48.0,47,29.71,10.0,SSE,12.7,18.4,N/A,,Clear,150,2013-06-19 15:53:00
10:53 AM,69.1,50.0,51,29.70,10.0,SSE,12.7,20.7,N/A,,Clear,150,2013-06-19 16:53:00
11:53 AM,71.1,53.1,53,29.70,10.0,ESE,12.7,19.6,N/A,,Clear,120,2013-06-19 17:53:00
12:53 PM,72.0,54.0,53,29.69,10.0,South,11.5,24.2,N/A,,Partly Cloudy,180,2013-06-19 18:53:00
1:53 PM,73.0,55.0,53,29.69,10.0,SE,13.8,26.5,N/A,,Partly Cloudy,140,2013-06-19 19:53:00
2:53 PM,73.0,54.0,51,29.69,10.0,South,15.0,25.3,N/A,,Clear,170,2013-06-19 20:53:00
3:53 PM,73.9,55.9,53,29.67,10.0,SSE,11.5,23.0,N/A,,Partly Cloudy,160,2013-06-19 21:53:00
4:53 PM,73.0,55.9,55,29.65,10.0,ESE,12.7,25.3,N/A,,Scattered Clouds,120,2013-06-19 22:53:00
5:53 PM,73.0,57.0,57,29.65,10.0,ESE,9.2,20.7,N/A,,Partly Cloudy,120,2013-06-19 23:53:00
6:53 PM,72.0,57.9,61,29.64,10.0,SE,10.4,-,N/A,,Clear,140,2013-06-20 00:53:00
7:53 PM,71.1,59.0,66,29.62,10.0,ESE,9.2,16.1,N/A,,Clear,120,2013-06-20 01:53:00
8:53 PM,69.1,59.0,70,29.64,10.0,SE,6.9,-,N/A,,Partly Cloudy,130,2013-06-20 02:53:00
9:53 PM,69.1,57.9,68,29.61,10.0,SE,9.2,21.9,N/A,,Clear,130,2013-06-20 03:53:00
10:53 PM,68.0,57.9,70,29.61,10.0,Variable,6.9,16.1,0.00,,Clear,0,2013-06-20 04:53:00
11:53 PM,64.9,57.0,75,29.63,10.0,NE,4.6,-,N/A,,Clear,50,2013-06-20 05:53:00